Location: Kerentrech
(47.7567°N, 3.3595°W)
Time: 03:39:47
(UTC+00:00)

Cosmos 1023 Rocket - Pass Details

Date: 17 February 2020
Orbit: 737 x 772 km, 74.1° (Epoch: 29 March)

Event Time Altitude Azimuth Distance (km) Brightness Sun altitude
Rises 06:13:10 0° 203° (SSW) 3,229 7.6 -11.4°
Reaches altitude 10° 06:15:31 10° 205° (SSW) 2,309 6.8 -11.0°
Maximum altitude 06:20:47 81° 292° (WNW) 788 4.5 -10.1°
Drops below altitude 10° 06:26:05 10° 21° (NNE) 2,326 7.2 -9.2°
Sets 06:28:29 0° 22° (NNE) 3,255 7.9 -8.8°
